Theta_e
311 311 311 311 311 311 311 310 310 309 309 305 302 304 296 295 292 303 306 307 305 298 292 295 295 295 298 302 301 302 300 299 301 299 300 298 301 300 300 300 299 301 300 300 298 299 296 298 296 299 305 307 309 311 310 312 311 311 307 308 308 321 301 297 298 302 305 308 310 310 311 309 306 305 306 303 300 300 297 295 299 297 298 294 294 294 297
311 311 311 311 311 311 311 310 310 310 309 305 305 299 295 296 295 297 305 307 304 295 288 289 292 294 298 297 296 299 297 297 296 297 299 298 298 298 298 300 303 300 303 301 298 301 294 299 298 299 303 302 309 311 311 311 309 309 307 304 309 302 302 299 293 293 295 301 304 304 308 308 304 303 304 305 304 303 302 301 305 297 298 298 293 291 295
311 311 311 311 311 310 310 310 310 310 310 308 304 296 297 296 298 298 301 306 302 293 295 292 291 293 292 292 291 294 296 298 298 297 296 300 299 298 297 299 301 301 303 301 302 302 299 295 300 300 300 301 307 306 309 312 309 311 315 326 311 305 302 299 292 290 288 289 291 293 297 301 304 305 304 305 304 302 299 295 295 289 298 300 296 295 301
311 311 311 311 311 310 310 310 310 310 310 309 304 299 296 292 286 293 295 300 299 298 300 296 293 291 291 291 293 295 294 298 300 299 298 301 301 300 300 300 300 298 298 296 296 297 303 298 297 298 298 301 303 306 306 306 309 321 332 327 312 304 305 302 299 296 294 297 300 311 308 302 300 303 304 304 305 305 302 299 294 290 295 299 297 300 302
310 310 310 311 311 310 310 310 310 309 310 310 303 300 297 297 289 290 288 295 295 293 296 294 295 291 295 288 293 291 292 294 296 301 295 300 299 298 298 298 296 295 296 293 295 299 298 300 298 298 298 301 302 304 302 305 309 322 326 328 313 305 301 303 302 301 302 306 306 307 308 304 304 303 303 305 304 303 302 297 295 299 297 289 298 306 302
310 310 310 310 310 310 309 309 309 308 309 309 305 295 297 288 293 295 297 289 286 289 291 294 292 294 294 290 294 291 291 292 291 296 299 299 300 295 296 296 296 295 293 294 292 295 295 297 294 298 298 297 300 299 305 305 312 315 313 318 310 308 301 304 304 302 303 305 305 307 307 306 305 305 304 303 304 303 301 300 301 302 296 294 298 305 309
310 310 311 310 309 308 309 309 309 308 308 308 303 293 296 295 294 294 298 290 292 292 293 294 293 292 293 291 292 291 291 290 293 294 293 295 295 297 290 293 295 295 295 294 292 294 290 291 295 295 294 295 296 296 299 303 306 305 303 310 312 307 302 307 304 303 303 304 304 305 304 305 305 304 305 305 304 304 303 302 303 302 301 302 302 304 306
310 310 310 310 308 308 308 308 309 308 308 307 300 298 293 291 291 290 296 295 292 293 293 293 292 289 294 289 290 291 291 290 293 295 293 290 292 297 293 293 295 295 295 295 291 292 294 294 291 295 295 295 297 296 297 298 303 302 301 304 311 306 304 308 305 302 301 304 305 305 304 303 302 305 305 305 305 304 304 304 303 304 302 303 303 302 302
310 310 310 309 309 308 308 308 308 308 308 302 298 297 299 297 299 297 291 289 291 293 293 291 290 289 291 289 290 292 291 290 294 293 296 293 291 293 292 294 294 295 294 294 293 296 295 295 294 295 296 292 298 296 297 302 297 302 302 303 307 307 303 306 305 299 300 305 304 304 304 304 303 302 304 304 303 301 302 302 304 302 301 303 305 300 300
310 310 310 310 309 309 309 309 309 308 308 302 300 295 301 302 304 301 295 287 293 290 292 291 290 286 291 291 291 291 291 293 293 290 295 296 296 296 295 295 294 293 293 292 294 297 297 297 297 298 299 301 301 302 302 302 300 300 301 304 302 304 303 299 298 296 297 303 305 304 304 302 299 300 303 305 306 304 305 305 306 305 304 301 298 298 303
310 310 309 309 309 309 309 309 309 309 306 300 299 298 299 297 296 297 296 287 290 291 290 289 288 291 292 293 292 293 293 293 293 289 289 295 296 298 297 295 293 292 292 295 300 300 300 301 301 301 301 301 301 302 303 305 305 304 303 302 303 304 303 299 302 295 298 302 303 304 300 293 295 306 308 307 305 305 303 304 305 306 305 303 304 304 310
309 309 310 309 309 309 309 309 309 308 307 306 305 300 301 302 299 297 292 286 287 291 289 287 289 291 292 293 293 292 292 292 292 295 291 293 296 298 296 295 295 290 298 303 302 302 302 304 303 303 303 303 303 304 304 304 304 308 308 304 303 303 305 300 302 296 296 302 306 298 292 295 310 309 310 310 309 308 307 307 307 308 310 306 306 307 307
309 309 310 309 309 309 309 309 309 309 308 307 305 299 302 305 300 295 293 289 285 288 287 289 293 292 293 293 292 293 294 294 295 296 295 294 294 296 297 296 294 296 302 300 301 300 297 295 296 298 298 301 303 303 303 302 303 305 307 307 305 304 303 300 299 298 300 299 296 290 293 308 310 309 312 315 312 311 310 306 308 311 309 312 313 312 314
310 309 310 309 309 309 309 309 309 309 308 307 304 303 303 304 298 296 293 289 287 291 292 290 291 291 292 292 292 293 294 294 295 296 293 296 295 295 297 299 300 302 302 304 304 301 294 295 291 293 293 297 297 296 299 302 302 303 305 307 308 307 307 305 297 300 293 295 295 295 304 302 306 308 311 309 309 309 308 300 304 313 315 317 317 317 318
309 310 310 309 309 309 309 309 309 309 308 307 306 303 303 304 303 298 299 294 287 290 292 286 290 291 292 292 293 291 291 292 291 291 296 297 295 297 299 300 303 302 303 301 301 299 294 292 288 288 291 291 288 292 301 299 304 306 307 307 308 308 306 309 297 297 298 295 293 293 294 292 299 310 314 316 315 314 313 309 305 319 318 318 317 318 321
309 309 309 310 309 309 309 308 309 308 308 306 305 303 303 305 305 303 298 293 290 283 289 294 295 293 291 292 293 291 289 290 291 291 291 294 295 298 300 302 303 304 301 299 301 296 294 289 286 287 286 290 295 294 293 299 298 305 307 308 307 308 308 312 304 301 301 295 292 291 291 296 306 314 315 318 316 315 314 308 301 318 320 320 319 320 322
309 309 309 309 311 310 310 309 309 309 308 307 304 303 302 307 305 301 297 295 292 287 295 295 295 294 293 291 293 293 294 290 291 288 287 289 293 296 299 301 303 302 301 298 298 295 291 289 291 291 292 295 291 292 297 296 296 297 305 305 304 303 303 305 300 301 300 299 294 292 299 300 311 313 312 314 315 316 310 298 299 316 322 320 320 320 321
309 310 310 310 310 310 310 310 310 309 308 308 306 303 303 307 308 304 300 295 290 291 295 297 294 292 291 292 292 294 295 295 294 295 292 293 294 295 296 298 296 301 303 294 295 291 290 290 287 288 287 296 297 298 289 296 295 296 298 299 298 299 301 302 297 301 300 301 299 299 302 316 319 316 317 315 317 313 299 291 306 321 321 320 321 322 322
309 309 310 309 309 309 309 309 309 309 308 307 306 305 303 306 307 305 300 295 293 288 295 300 300 296 298 300 296 296 296 295 294 290 290 290 294 299 299 299 300 293 298 293 296 290 289 290 294 292 290 294 297 291 300 295 294 300 299 297 298 298 301 305 302 298 299 299 299 298 302 313 317 320 318 317 311 298 297 316 322 325 321 323 324 324 325
309 309 309 309 309 309 309 309 308 308 308 308 306 301 303 306 308 306 300 293 295 292 296 297 298 296 299 296 293 293 294 294 297 293 291 287 296 297 294 290 300 297 296 297 290 295 290 288 291 294 290 293 295 303 296 297 301 298 299 304 301 301 300 299 299 300 300 302 298 295 290 310 316 324 316 316 308 309 319 324 323 324 323 324 324 324 326
308 308 309 308 308 308 308 308 308 308 308 308 307 302 301 306 306 309 305 300 295 291 293 300 301 299 300 299 300 299 297 293 295 292 295 294 298 294 285 287 294 293 290 292 287 289 293 290 293 292 296 297 300 299 293 296 299 306 305 303 303 310 302 299 302 306 295 296 293 292 304 315 321 314 311 320 322 321 325 323 319 323 323 322 322 323 326
308 308 309 308 308 309 309 309 308 308 308 308 307 305 299 304 307 308 308 305 297 294 295 300 301 300 301 302 302 302 301 299 301 300 295 293 298 295 295 295 295 297 298 298 293 293 296 294 296 293 293 296 302 295 298 293 292 301 308 307 297 310 303 305 298 308 305 301 305 310 315 318 317 321 321 321 326 327 325 323 323 322 323 326 323 324 328
308 308 308 308 308 308 308 308 308 308 308 308 306 304 300 302 304 309 306 299 302 301 303 301 302 302 303 304 306 306 306 306 303 302 301 296 293 296 294 294 294 303 304 303 296 295 294 293 291 298 295 298 295 297 298 299 296 301 298 307 306 311 313 315 311 307 314 315 316 316 315 317 323 322 323 322 323 325 325 324 324 325 326 329 328 330 331
308 308 308 308 308 308 308 308 308 308 308 308 307 304 302 304 305 305 304 300 298 293 297 300 297 295 297 299 303 305 306 306 306 304 305 303 293 293 297 298 300 300 302 304 307 299 298 298 297 299 292 299 301 295 293 293 297 302 300 303 307 309 310 309 306 310 303 297 314 313 314 317 316 318 321 324 324 324 326 325 326 327 329 329 330 329 330
308 308 308 308 308 308 308 308 308 308 308 308 307 307 307 304 306 306 299 293 294 293 287 292 294 299 302 304 305 303 304 306 308 306 305 304 300 295 293 303 302 301 299 303 309 304 303 294 295 296 292 301 302 293 303 296 295 304 296 301 303 303 312 307 307 308 306 307 313 315 318 317 319 318 318 321 321 323 325 325 324 322 321 320 321 324 326
308 308 308 308 308 308 308 308 308 308 308 308 308 304 303 303 307 308 303 300 299 296 289 288 293 302 304 302 301 304 307 306 305 304 304 303 304 303 300 301 301 306 304 303 303 299 299 298 298 297 294 296 305 297 298 303 300 306 301 299 306 308 311 300 306 305 309 314 314 316 317 316 317 318 320 319 319 319 318 319 319 318 317 317 317 318 317
308 308 308 308 308 308 308 308 308 308 308 308 306 306 305 306 308 306 302 299 294 290 292 289 294 299 302 299 303 304 304 304 304 303 303 304 303 303 303 301 299 300 300 299 302 299 300 298 298 295 298 299 304 302 303 303 303 301 301 306 310 308 303 310 309 303 302 305 310 315 306 307 313 316 318 320 318 316 315 315 315 315 315 315 315 315 318
309 309 308 308 308 308 308 308 308 308 308 308 307 306 307 305 306 309 308 304 297 290 290 290 291 295 301 298 304 305 305 305 304 302 302 302 303 303 302 301 300 298 298 297 295 296 296 294 295 302 300 301 300 300 308 309 309 303 302 304 312 307 308 308 304 304 303 315 316 319 316 314 313 315 316 319 321 315 314 313 313 314 314 314 314 314 315
308 308 308 308 308 308 308 308 308 308 308 307 306 305 305 307 308 310 308 308 305 298 295 295 297 296 291 296 303 302 304 304 303 303 301 301 302 302 301 301 300 299 299 298 298 300 297 297 301 298 298 307 300 298 301 297 298 296 302 311 315 315 317 314 312 312 313 318 319 320 317 311 314 316 316 316 318 316 315 315 316 315 314 314 313 314 314
308 308 308 308 308 308 308 308 308 308 308 306 304 301 297 300 308 309 310 309 307 303 293 291 287 291 300 300 299 302 303 305 304 303 302 300 300 300 301 300 300 302 301 300 300 295 301 300 300 303 304 310 299 300 297 299 298 301 310 314 315 316 316 317 317 314 312 321 320 320 317 317 318 317 317 317 317 318 316 316 315 314 315 315 314 314 314
309 308 309 308 308 308 308 308 308 308 307 304 301 294 292 290 301 309 309 307 308 301 296 294 290 296 295 301 302 303 303 304 304 303 302 302 301 300 302 302 301 302 297 298 299 299 301 298 298 301 306 307 304 300 299 298 297 302 309 312 313 313 314 314 319 319 320 320 320 321 319 318 320 318 316 317 317 315 316 317 319 320 317 316 315 314 314
309 309 308 309 308 308 308 308 308 308 306 301 298 296 297 299 304 307 307 307 306 299 294 290 290 291 292 295 301 304 303 305 304 303 303 303 299 300 300 300 299 302 301 300 300 300 299 302 299 299 298 305 306 300 300 298 296 299 308 312 313 314 314 314 316 318 320 322 320 315 313 314 315 314 311 314 315 316 315 314 315 316 318 316 315 315 315
309 309 309 309 309 308 309 309 309 308 305 305 307 307 307 306 306 306 307 306 303 298 299 293 288 291 290 293 300 302 305 303 302 301 300 305 299 300 297 300 300 300 306 302 296 297 302 299 301 298 302 307 302 301 299 298 301 308 309 310 311 312 312 314 317 319 320 320 320 313 310 311 313 315 316 315 314 313 314 313 313 315 315 314 313 313 314
309 309 309 309 309 309 309 309 309 308 308 305 300 302 307 308 307 307 308 308 300 301 300 293 289 289 290 299 294 300 306 299 299 302 297 303 307 299 298 298 300 297 300 297 302 303 306 303 297 300 305 302 305 300 296 301 306 307 309 310 311 311 312 312 314 315 317 319 321 319 317 318 318 317 317 314 312 314 315 314 315 314 314 314 313 312 313
309 309 309 309 309 310 310 309 307 305 302 302 303 307 309 308 308 311 308 304 295 294 294 294 294 288 289 292 291 296 305 303 299 301 299 301 308 301 299 296 299 293 302 306 302 303 299 299 306 299 297 306 301 296 299 302 305 307 309 307 308 309 309 310 310 314 316 316 316 315 318 320 318 316 315 315 314 313 313 312 312 311 310 311 314 315 314
309 309 309 310 309 309 309 310 307 305 302 301 303 313 310 312 311 309 308 308 302 295 293 293 293 289 290 285 287 298 305 301 303 303 304 304 302 307 304 301 296 302 306 300 297 300 298 308 303 295 304 298 296 300 303 306 305 308 309 306 307 307 307 308 311 314 315 315 314 314 314 315 314 313 313 315 315 315 314 312 311 310 309 309 311 314 316
309 309 310 309 309 309 305 305 310 306 304 308 311 312 312 309 309 310 308 306 308 305 296 293 290 290 292 291 295 299 301 294 303 300 303 301 299 304 303 300 295 304 301 296 297 298 303 312 302 296 298 296 300 306 307 309 308 308 309 310 309 308 309 311 314 314 312 313 313 313 313 314 313 313 312 312 312 314 314 313 313 311 309 309 311 312 314
309 309 309 308 306 301 301 304 306 314 314 312 312 308 305 305 299 301 302 298 302 303 298 297 291 292 298 295 290 300 300 299 304 297 299 303 300 300 306 300 301 300 292 296 300 306 304 302 299 296 299 304 307 308 309 312 312 313 313 313 312 312 313 314 314 312 310 309 309 311 312 312 311 312 312 312 312 312 313 314 315 316 315 315 314 315 314
308 309 309 308 303 300 301 307 315 313 310 311 309 302 300 302 298 294 294 299 300 294 298 295 292 296 296 295 296 304 300 299 297 299 294 302 299 294 301 291 300 301 292 294 298 310 295 295 298 298 296 302 304 306 311 312 313 314 315 316 315 313 314 314 314 311 310 309 310 312 312 309 309 310 311 311 313 313 313 314 314 315 316 317 318 318 316
310 304 303 302 301 303 310 313 314 312 309 303 304 301 294 301 293 289 301 292 291 296 300 292 299 300 299 296 296 297 307 301 295 296 298 300 309 297 302 299 301 298 289 290 297 307 295 288 296 295 293 301 303 309 311 311 311 313 314 313 315 316 315 314 315 315 314 314 314 314 313 312 312 311 311 311 312 311 312 313 314 315 315 316 319 317 317
306 305 304 301 304 306 308 310 311 309 304 301 300 299 297 289 297 299 297 292 292 293 301 298 300 297 302 303 302 295 308 308 308 308 304 297 307 305 298 294 304 295 290 289 302 304 300 295 293 293 296 303 305 309 310 310 311 313 315 314 316 317 317 315 313 314 313 312 312 313 313 314 313 312 313 313 313 313 313 314 315 316 316 316 315 316 316
306 303 304 306 306 307 307 307 306 303 303 305 294 288 290 293 300 297 296 289 293 297 300 301 297 299 300 304 303 306 306 312 309 306 301 296 305 301 299 300 302 294 289 299 306 301 298 289 288 292 300 305 307 309 310 310 311 312 315 316 316 317 317 318 314 313 316 315 314 314 314 314 314 314 314 314 314 315 315 315 316 317 317 318 318 318 318
307 307 307 305 306 306 308 296 304 303 290 289 289 287 293 289 292 291 294 301 303 301 302 306 305 307 308 310 305 308 306 312 304 303 300 297 306 304 298 294 297 289 296 306 301 295 291 288 288 295 303 306 307 308 310 312 314 315 315 317 316 315 316 313 313 314 316 314 314 314 314 314 314 315 316 315 315 315 316 318 318 317 317 318 318 318 319
309 309 306 304 298 301 301 286 299 297 289 290 289 286 290 289 293 297 293 296 302 300 303 299 300 302 297 307 304 305 307 308 309 305 303 305 300 296 297 291 294 301 307 299 298 292 293 296 298 301 305 307 309 311 311 312 314 314 314 315 314 313 312 311 313 314 313 315 315 315 316 316 316 316 316 316 315 315 316 316 318 319 318 318 318 318 320
305 300 294 292 290 294 291 285 296 288 285 288 290 291 291 288 291 294 295 301 303 299 304 306 305 304 302 307 307 306 307 302 311 302 297 302 297 299 295 293 301 303 296 292 293 295 296 295 302 305 306 307 308 310 312 313 313 311 311 313 314 313 313 313 312 313 313 313 313 314 314 314 314 314 315 315 316 316 316 316 318 318 317 317 317 318 320
304 297 293 289 286 290 290 287 288 285 293 296 293 294 293 294 295 295 301 305 302 303 302 304 305 305 302 309 302 301 307 305 300 301 302 301 296 292 301 307 304 294 293 292 289 287 291 297 301 303 306 307 309 311 312 311 312 315 314 311 312 312 313 315 314 313 314 314 314 314 314 314 314 314 314 315 315 316 316 317 318 318 318 317 317 318 319
301 307 297 293 289 292 301 289 291 296 297 296 298 299 300 299 300 301 304 306 304 305 305 307 306 306 301 302 305 306 308 306 300 303 305 296 294 298 304 299 291 293 289 287 289 292 295 300 303 306 309 310 310 311 312 313 313 314 312 312 312 312 313 314 315 313 314 314 314 314 314 314 315 315 315 314 314 315 317 316 316 317 317 317 318 318 319
295 303 297 289 287 290 290 297 302 300 302 302 303 304 306 308 305 302 307 308 307 307 305 305 304 308 305 309 308 300 302 303 300 300 304 299 300 294 290 294 293 295 295 292 292 297 299 302 305 308 310 311 312 311 311 313 312 314 312 312 311 311 311 312 312 313 314 314 314 314 315 315 315 315 313 313 313 315 316 317 317 318 318 318 318 317 318
309 297 292 292 298 299 298 300 299 294 300 303 305 305 306 305 303 306 309 310 307 305 308 306 305 305 300 305 301 300 295 302 294 292 302 298 293 289 291 288 290 289 295 298 297 300 302 306 309 311 310 310 311 313 314 315 315 313 311 311 311 312 312 312 313 313 313 314 315 314 314 314 313 313 313 314 314 314 316 317 318 318 318 318 317 315 315
295 294 303 294 300 301 303 303 303 298 300 302 303 303 306 306 305 307 311 310 309 310 310 309 309 302 300 300 293 294 294 299 299 295 296 293 294 296 294 289 291 292 294 300 301 303 306 309 310 310 310 310 311 311 311 312 314 314 312 313 313 313 312 312 312 313 315 315 315 315 316 316 315 314 314 313 315 317 319 319 318 317 317 319 320 318 317
304 297 299 306 300 299 301 296 296 296 298 299 302 304 305 305 305 306 311 313 311 307 304 301 300 297 294 293 291 289 291 303 298 295 294 294 297 296 292 290 293 297 299 304 305 306 307 308 308 308 308 309 309 310 312 313 313 311 314 315 314 314 314 313 312 313 313 314 315 319 314 314 314 315 316 315 315 315 313 314 316 319 318 317 317 313 315
295 294 298 303 305 305 303 303 304 303 303 304 305 308 309 306 307 310 314 313 307 302 299 303 300 295 292 291 293 301 303 297 293 295 292 295 300 295 294 296 298 301 302 303 304 307 308 309 310 310 310 310 312 311 312 314 314 315 315 314 314 314 313 313 313 314 314 314 314 314 313 314 315 315 315 314 314 313 311 310 313 315 316 317 319 316 315
Wind_Speed
20 20 19 18 18 16 15 14 13 12 12 9 8 8 8 7 11 16 22 22 16 10 8 8 8 10 11 14 18 18 17 15 13 17 16 15 12 12 14 14 15 15 13 15 15 15 13 15 13 15 12 12 14 9 12 16 19 20 8 15 14 13 7 7 10 6 12 15 8 18 20 18 15 13 14 11 13 10 7 4 2 2 2 6 4 9 5
21 21 20 20 17 15 13 13 12 11 8 7 7 7 7 9 12 15 14 13 10 7 7 6 8 9 13 16 17 15 17 17 15 13 13 11 10 13 12 15 16 17 16 14 17 14 11 12 14 14 12 8 10 12 21 13 12 15 8 9 13 9 9 6 4 6 5 10 8 7 17 15 11 9 12 15 13 12 10 7 2 7 9 7 5 10 4
21 20 20 19 17 16 14 12 11 10 8 7 6 6 7 9 10 12 11 11 7 9 7 9 9 12 14 15 17 14 12 11 17 16 16 13 13 11 11 15 17 16 14 17 17 18 15 14 17 15 16 13 14 17 12 23 16 12 14 16 11 15 8 12 9 12 13 12 13 10 12 16 9 9 11 16 18 15 10 10 7 5 5 13 8 4 4
20 20 19 18 17 15 13 12 11 9 8 7 5 5 7 6 9 7 8 8 8 8 8 11 12 12 11 12 13 13 11 11 14 15 15 13 13 12 11 8 16 14 18 14 13 14 16 15 13 9 10 10 7 11 25 18 12 17 15 18 11 7 9 14 15 12 10 10 4 1 2 7 14 16 15 12 16 17 12 6 6 10 4 6 7 9 4
21 21 20 17 17 14 12 11 11 11 8 6 5 4 4 5 6 7 8 10 6 7 10 10 9 9 10 6 8 15 15 13 15 12 9 11 13 13 10 10 12 14 15 15 15 13 20 16 17 15 14 16 15 24 11 22 21 23 22 9 11 5 9 14 18 18 11 5 7 8 9 8 13 15 19 16 12 13 16 12 13 6 2 7 4 4 9
22 22 21 19 16 14 14 12 9 11 9 4 3 5 4 4 5 9 5 5 10 14 10 12 13 14 13 10 11 14 14 13 11 13 10 10 9 8 8 9 13 14 14 15 12 17 14 9 15 20 15 22 22 22 14 9 18 26 18 9 10 5 5 11 16 18 20 17 10 10 15 15 9 16 14 18 19 15 14 13 12 7 7 13 8 3 4
21 22 21 21 16 16 15 13 10 9 8 6 4 4 6 7 8 9 10 9 9 11 15 19 16 16 12 8 11 14 15 14 11 8 13 12 9 7 10 13 10 12 14 13 9 10 12 11 15 11 20 19 19 14 26 15 16 16 19 14 3 3 4 3 11 14 16 18 20 19 16 11 10 11 17 14 17 22 20 12 9 11 6 8 11 8 10
22 22 22 20 14 17 15 14 11 9 7 6 4 6 6 6 4 4 5 5 10 13 12 12 12 12 11 8 7 11 13 17 14 12 8 11 11 5 13 16 13 14 15 11 8 12 14 14 16 17 17 20 6 13 9 13 16 14 17 15 6 10 3 9 3 5 14 20 17 18 20 16 15 12 11 18 18 18 19 17 13 9 10 11 7 8 12
23 23 22 19 14 13 14 13 10 9 3 3 5 6 6 5 5 2 6 9 6 7 7 9 10 11 9 8 8 8 11 14 15 16 13 13 13 6 8 11 14 11 11 11 13 13 15 16 16 18 16 14 15 10 8 12 20 20 16 11 13 7 3 3 2 3 3 4 15 22 19 18 18 19 16 13 18 13 13 16 14 12 10 5 5 7 9
23 23 21 19 17 15 13 12 11 9 5 5 4 8 6 6 1 2 3 5 8 9 10 9 9 9 8 7 10 11 12 14 16 15 9 10 11 11 11 8 8 8 10 10 14 13 16 17 16 15 15 16 18 17 19 15 16 14 16 14 12 9 2 6 4 0 2 3 3 11 22 16 17 23 22 10 4 7 7 5 13 17 12 11 8 8 4
22 21 21 19 18 17 16 13 11 10 7 7 5 6 5 6 3 3 2 6 7 8 9 9 10 6 10 10 12 13 14 14 12 8 8 11 12 10 10 9 7 8 10 13 8 9 15 15 18 16 18 22 19 20 19 21 18 16 15 12 14 16 8 4 7 3 2 4 8 8 4 16 17 7 7 7 10 5 6 12 10 9 13 10 11 9 3
22 21 20 19 17 17 16 15 12 9 8 7 3 7 8 6 7 4 3 5 8 7 8 9 10 11 12 12 13 12 13 14 15 10 14 13 14 12 10 9 9 9 8 12 8 9 15 16 16 14 17 18 19 20 24 20 19 15 13 13 13 16 9 4 4 5 3 2 1 3 11 8 2 9 9 14 13 10 12 9 7 5 4 12 11 8 9
22 20 19 19 18 17 16 15 13 10 8 6 5 9 7 5 3 3 4 5 8 7 8 11 12 15 17 16 14 13 13 13 14 14 13 15 16 14 10 9 9 11 10 16 8 7 11 14 15 15 14 16 16 18 20 19 20 18 13 12 11 5 5 2 3 4 3 1 4 7 9 1 5 4 2 3 3 0 3 4 4 2 2 5 3 6 5
20 19 18 18 17 17 16 15 13 10 8 6 7 7 6 5 5 3 3 4 7 7 9 12 14 13 13 13 14 15 12 12 11 11 12 11 12 14 12 11 13 12 14 1 6 6 7 6 9 8 9 11 14 13 13 16 17 17 16 14 12 8 3 3 2 5 5 5 7 7 4 6 4 2 1 1 0 2 1 2 5 3 6 8 4 7 10
17 17 17 18 17 16 15 13 12 11 10 6 6 6 6 6 4 4 2 2 8 9 7 8 8 12 12 9 9 11 11 8 9 9 13 14 12 8 12 12 12 18 10 4 3 3 3 4 5 6 6 3 5 6 11 8 9 11 10 10 6 6 3 2 4 2 6 5 6 5 4 8 4 2 3 1 2 10 7 6 3 7 4 6 7 7 7
16 17 17 16 17 15 14 12 11 10 8 4 6 5 6 7 4 5 5 4 4 9 6 10 10 11 11 10 9 13 9 7 5 8 9 9 9 14 12 11 12 17 8 3 2 3 2 4 6 3 4 3 7 7 6 10 9 11 7 5 7 8 4 1 2 0 1 6 5 6 8 3 3 1 2 1 8 9 6 3 1 3 4 7 7 8 7
17 16 15 15 13 13 12 12 11 9 7 4 5 6 6 5 3 4 4 4 5 10 9 13 15 14 10 10 10 6 2 3 4 5 6 7 10 11 11 12 12 12 9 3 2 2 1 3 5 3 5 4 4 4 12 7 8 8 15 13 9 7 3 5 4 1 1 0 5 6 1 2 1 4 5 5 6 7 5 1 2 3 4 4 6 8 7
16 15 14 14 13 13 12 12 12 10 7 4 5 6 7 5 3 3 4 4 6 9 10 11 12 8 6 6 6 8 9 6 5 3 6 8 9 5 9 9 8 9 10 9 2 3 3 2 4 5 6 3 5 8 5 9 7 5 7 6 6 6 6 1 3 1 1 2 1 2 1 1 1 3 5 2 6 8 4 6 3 3 3 5 7 9 6
16 16 15 14 13 13 12 12 10 9 8 5 4 6 7 7 2 2 3 5 4 8 6 7 11 15 14 12 10 10 9 11 7 6 7 7 2 7 9 8 4 5 6 4 1 3 4 4 3 5 4 2 1 4 5 4 4 8 9 11 9 9 7 0 3 3 1 2 0 1 1 1 2 1 4 4 5 4 5 3 3 1 6 9 9 10 8
16 15 15 14 13 12 12 11 10 9 8 6 2 5 7 8 4 7 5 5 4 11 12 11 10 15 11 12 10 9 7 9 5 3 4 7 4 12 10 1 3 6 5 4 6 3 5 5 6 3 6 3 1 2 5 8 9 5 4 2 1 4 6 5 4 6 2 2 1 1 2 3 4 1 2 4 1 1 2 2 5 6 7 7 7 8 6
16 15 14 14 13 13 12 12 11 10 9 7 4 5 7 4 5 4 7 6 5 9 10 7 11 13 12 12 12 13 12 12 9 6 5 6 4 5 5 3 4 3 3 5 4 4 4 3 5 5 2 3 2 1 3 6 6 3 3 1 2 3 4 5 5 6 5 1 2 1 1 3 5 2 3 3 1 6 1 1 8 5 6 5 6 7 6
15 15 15 14 14 13 12 12 11 11 11 10 8 5 8 6 4 1 4 4 7 8 9 12 13 15 18 17 16 14 15 16 15 10 8 7 3 7 7 8 5 5 1 1 3 3 1 3 3 3 5 3 2 3 1 4 4 4 5 1 1 3 3 0 4 4 1 3 7 11 23 8 3 1 2 5 2 2 7 7 7 6 4 3 7 6 7
16 15 15 15 14 14 13 13 12 11 12 11 9 5 8 8 5 0 2 5 6 9 9 10 11 13 14 17 18 17 16 14 14 13 11 8 8 6 7 7 5 3 3 2 1 4 2 3 5 3 4 2 3 0 3 4 3 5 4 1 4 3 4 2 4 3 7 7 6 9 13 15 10 7 5 5 5 4 7 9 9 6 7 8 8 9 10
16 16 15 15 15 14 14 13 13 12 11 11 8 6 7 6 7 5 4 5 4 8 9 10 8 7 7 11 11 9 12 15 15 13 10 8 9 8 5 7 6 2 3 4 4 2 3 3 5 3 4 2 2 2 1 1 0 4 6 4 3 6 9 6 2 3 7 5 11 13 18 17 17 16 2 8 6 9 7 9 9 10 11 11 11 11 11
16 16 16 15 15 15 15 14 13 13 12 12 11 8 7 7 5 2 4 5 3 3 8 9 11 13 15 15 13 13 11 9 7 11 12 12 12 10 9 1 3 2 5 4 4 2 1 3 5 3 4 2 2 1 1 2 2 4 4 3 4 2 8 5 2 6 1 4 7 11 15 11 11 14 15 5 11 11 13 13 13 13 14 14 13 13 13
17 17 16 16 15 15 15 15 14 14 13 13 12 8 7 8 4 1 2 5 5 5 7 9 11 10 10 11 11 9 11 11 9 11 14 14 13 13 12 8 6 2 2 4 4 2 4 5 4 5 5 2 1 1 1 3 3 2 2 6 2 5 5 2 5 4 5 4 3 7 13 11 17 17 17 16 7 12 17 15 15 14 16 15 16 16 13
18 18 17 17 16 16 15 14 14 14 13 13 9 8 8 8 6 6 5 2 5 6 6 8 8 10 11 15 16 14 14 13 14 14 14 16 16 13 11 9 9 4 4 3 3 3 3 5 3 5 5 2 3 3 2 2 3 2 2 4 3 2 3 2 5 5 4 3 3 4 8 7 9 12 13 16 12 13 16 16 16 15 14 13 16 15 14
18 17 18 17 17 17 16 15 14 14 12 13 10 8 8 9 8 7 6 5 6 6 8 9 10 12 14 19 17 13 11 10 11 13 14 14 18 14 12 10 6 5 5 5 4 4 3 5 7 1 5 4 3 3 3 2 1 2 4 4 3 3 1 1 3 3 4 2 1 1 4 5 5 8 10 10 9 11 15 14 14 14 13 12 14 14 16
19 19 18 18 17 17 16 16 15 14 14 11 8 9 9 9 8 5 7 7 6 4 6 10 11 11 9 9 13 13 13 13 11 12 12 12 12 15 11 7 5 7 8 5 3 3 3 4 5 5 3 3 4 2 2 1 2 4 4 1 1 2 1 3 6 7 11 6 2 1 1 4 3 9 11 13 11 9 13 13 13 13 12 12 13 12 12
21 20 20 18 17 16 17 16 16 15 12 8 7 6 6 2 2 1 2 4 3 1 5 6 9 6 8 10 13 13 13 12 11 12 12 10 10 9 8 8 7 7 5 3 2 4 1 2 4 6 8 2 3 3 3 0 1 2 1 3 3 1 1 2 3 5 6 0 2 2 1 1 2 8 12 11 11 9 10 11 11 12 12 11 12 11 11
22 21 20 19 18 18 17 17 15 13 10 7 5 4 4 3 1 3 2 1 2 3 6 5 10 10 11 9 7 5 8 11 9 9 12 11 8 9 6 6 6 5 5 4 3 4 2 4 4 5 3 3 4 2 1 1 2 2 2 2 3 4 4 4 4 5 6 5 4 3 2 2 2 9 15 13 13 12 8 8 11 12 12 13 13 11 11
21 20 19 19 19 19 19 17 16 11 7 6 6 5 3 4 2 6 8 8 6 6 7 7 7 6 6 6 6 7 11 10 7 5 6 7 8 7 6 6 5 6 4 2 0 3 2 2 5 5 6 2 3 3 2 3 5 4 8 5 4 5 6 7 7 4 4 4 5 6 5 6 9 10 7 6 6 8 8 9 9 9 13 12 11 11 12
23 21 19 17 19 21 18 17 16 11 8 9 13 17 19 23 24 20 9 5 4 5 2 3 6 5 5 6 11 11 7 5 2 2 5 2 5 6 7 5 5 4 6 4 2 3 1 1 2 5 2 5 0 2 2 5 3 4 6 3 3 4 6 7 7 2 3 4 4 4 4 3 8 10 9 7 6 5 7 8 9 8 9 11 12 11 11
22 20 19 18 18 19 18 16 13 11 11 8 8 7 8 16 15 17 8 2 3 3 3 4 5 5 8 7 7 4 7 3 4 5 4 6 1 4 2 3 5 4 3 5 1 1 1 1 3 4 1 4 2 1 3 2 2 4 1 1 3 5 6 7 5 2 2 1 2 3 8 10 10 9 8 8 7 6 6 6 7 9 9 10 9 9 8
20 19 18 19 18 17 19 17 7 5 6 7 8 6 2 1 2 6 6 3 3 3 3 3 3 5 5 4 4 7 6 3 3 4 2 4 7 5 2 3 3 5 1 4 1 2 1 2 2 3 3 2 3 3 1 3 5 2 6 5 5 6 7 5 5 3 2 3 8 10 9 5 6 7 8 8 8 8 8 8 7 8 9 8 8 7 6
19 18 17 18 19 15 8 5 5 4 4 5 6 6 8 6 5 4 4 4 3 3 4 3 2 5 5 5 5 4 5 3 3 2 1 2 3 1 1 4 2 2 2 3 3 3 3 2 1 4 2 3 2 2 1 2 4 6 6 6 6 7 4 6 4 1 5 9 11 12 13 11 8 6 5 7 8 8 8 9 8 8 9 8 7 5 5
21 15 16 15 8 2 4 3 3 5 5 1 4 8 7 4 3 2 3 2 2 1 4 3 6 7 4 5 4 4 3 3 1 2 1 0 1 2 3 1 2 1 1 5 5 4 2 2 1 6 4 3 2 1 2 2 5 6 7 5 4 2 5 6 5 5 13 11 9 8 9 10 8 6 6 7 7 7 7 8 7 7 8 7 6 6 5
20 15 5 3 3 5 3 2 3 3 8 5 6 1 2 1 2 3 2 4 3 5 4 4 7 4 2 3 6 4 4 2 2 2 2 1 0 0 1 1 2 1 5 2 1 3 1 3 3 4 3 2 4 3 4 5 5 5 6 4 3 3 4 6 4 6 10 11 10 7 6 8 8 7 7 7 5 5 4 4 5 7 7 7 5 4 5
12 2 2 3 2 3 3 2 3 7 3 1 3 1 2 2 0 2 3 2 2 4 4 5 5 4 5 6 8 4 4 3 3 2 2 3 1 0 2 3 3 3 1 1 2 3 2 1 1 0 3 2 2 4 3 3 3 3 3 4 3 2 3 5 3 9 10 7 5 3 2 6 7 7 5 5 3 3 5 7 8 7 4 6 6 4 4
3 5 5 5 4 6 7 2 7 2 2 2 2 1 3 2 2 3 2 2 2 3 3 5 3 4 7 8 7 6 4 4 3 2 2 1 0 1 1 1 0 3 2 2 0 2 1 1 0 1 2 3 5 3 2 1 2 4 4 5 4 3 1 3 3 4 5 5 3 2 2 5 7 8 6 4 4 6 7 7 6 5 6 6 5 4 4
4 5 5 5 6 6 6 7 7 3 2 2 2 3 2 2 3 2 2 3 2 3 4 4 2 4 5 6 6 7 2 2 2 0 1 2 2 1 2 2 1 1 2 2 1 1 0 2 3 2 3 4 2 3 5 6 4 3 3 1 2 2 4 2 4 4 6 5 4 4 6 7 7 6 6 6 6 6 6 6 7 9 9 7 7 7 4
3 2 5 7 9 9 7 4 3 3 3 1 1 1 2 3 0 2 2 2 1 1 4 4 4 3 3 1 2 3 2 1 1 1 1 2 1 1 1 1 1 0 1 2 2 2 1 3 3 4 4 3 4 4 3 3 2 2 2 2 2 1 1 1 3 4 2 2 3 5 5 5 4 4 4 5 4 4 5 6 8 8 8 7 7 6 5
12 8 5 4 4 3 2 2 1 1 2 1 1 2 1 1 1 2 3 1 2 2 2 2 2 2 5 1 2 3 2 1 1 1 1 1 0 0 1 0 1 1 3 1 1 2 3 3 3 2 3 3 4 1 3 3 4 3 1 1 4 5 3 4 8 5 3 7 9 8 7 7 7 8 8 7 8 10 9 7 6 6 6 7 7 8 7
5 2 2 2 2 3 3 2 2 2 1 1 3 3 4 4 1 0 2 2 1 3 1 1 3 3 3 3 1 1 1 2 1 1 1 1 0 1 1 1 2 1 2 1 1 3 6 3 3 1 1 2 3 5 6 6 6 6 7 9 5 6 9 9 6 1 5 9 8 7 5 4 4 5 6 6 8 9 8 8 8 8 7 7 7 7 7
2 1 1 2 1 3 2 2 2 2 3 3 3 4 4 8 9 8 6 6 5 7 5 1 2 3 3 3 1 3 0 1 2 1 1 1 1 0 2 1 0 0 1 2 2 2 1 6 3 4 5 7 8 6 5 5 5 8 8 7 9 9 6 6 6 5 7 6 7 7 7 8 10 11 11 10 10 9 8 7 6 7 7 6 6 7 7
3 1 1 2 5 2 1 2 2 2 2 2 4 5 6 9 7 8 9 8 8 7 6 6 6 5 4 1 1 1 3 1 0 1 2 1 1 3 2 0 1 1 3 3 4 5 5 5 6 7 9 8 6 5 5 3 3 1 3 6 10 10 10 9 10 9 8 7 8 10 10 10 10 9 9 8 8 7 7 4 5 6 5 5 6 6 5
3 1 0 1 1 2 1 2 4 2 4 6 9 9 8 9 8 8 8 6 7 7 5 4 5 2 2 3 2 1 1 1 0 1 1 1 3 0 1 0 3 2 3 5 6 5 4 6 6 6 7 6 6 6 5 4 4 4 4 6 6 9 9 8 6 6 7 9 9 8 7 7 7 6 6 6 6 6 7 7 7 6 5 4 4 3 5
2 1 1 2 2 1 5 2 2 7 6 7 10 9 7 4 3 4 5 4 5 6 6 5 4 2 1 2 2 3 4 2 1 2 2 3 1 2 1 3 3 4 4 3 5 4 5 6 6 7 6 6 6 7 7 7 9 4 6 7 9 9 9 8 8 7 6 7 5 5 4 5 6 5 6 6 6 6 5 4 4 4 4 4 4 4 4
3 0 0 0 1 1 3 4 5 8 12 7 4 4 6 9 9 7 6 6 8 9 6 5 2 0 2 1 3 4 3 4 3 3 2 2 2 3 2 3 4 4 5 5 4 5 5 5 4 3 5 5 4 4 5 6 5 3 9 9 9 9 8 9 9 8 7 6 5 6 6 6 5 5 5 5 5 5 4 4 4 3 3 4 4 5 5
1 1 1 0 2 3 6 5 3 8 11 10 10 11 8 7 8 8 6 5 4 5 4 2 3 1 3 3 1 3 3 3 4 3 5 7 5 4 4 5 5 5 5 6 6 6 6 7 8 10 11 11 12 11 11 11 14 13 11 10 7 6 8 8 8 7 6 5 5 6 5 5 4 4 4 5 4 3 3 3 3 4 4 4 4 4 4
2 1 1 3 4 2 5 5 7 9 10 11 9 7 8 8 8 9 10 7 9 5 5 6 4 3 2 3 3 2 2 3 3 7 4 5 5 4 5 6 5 5 8 6 7 8 10 9 10 10 12 12 11 11 10 11 11 11 9 8 11 11 9 9 8 8 8 8 7 7 7 6 5 6 6 6 6 6 6 7 6 3 2 3 4 5 5
1 3 5 6 7 7 7 4 2 2 5 7 7 6 4 7 8 6 7 6 7 10 11 6 3 3 2 4 3 1 2 2 3 4 6 5 4 4 4 6 8 9 10 9 8 6 7 7 7 8 7 7 7 8 8 6 2 1 3 9 10 11 10 10 9 8 7 8 10 10 11 11 10 8 8 8 8 7 9 8 8 8 8 6 3 3 5
Wind_Direction
318 317 318 319 319 320 317 320 318 322 333 333 338 322 307 292 275 290 296 297 307 298 278 268 270 255 249 254 250 255 256 262 274 288 291 287 284 282 270 267 278 272 277 281 276 275 275 277 275 301 281 239 207 212 214 192 192 202 222 198 193 184 210 203 240 271 271 265 250 184 183 184 198 203 201 209 221 217 234 220 191 216 183 203 203 231 239
320 320 319 318 318 317 316 316 316 316 330 322 319 314 298 300 300 299 283 280 275 277 260 268 257 257 263 265 273 271 279 290 294 278 277 272 271 268 276 284 262 274 275 278 279 280 281 272 278 276 286 292 324 228 214 223 213 190 191 226 159 204 192 206 164 232 266 283 275 224 183 185 197 199 192 201 220 214 228 251 157 220 213 207 166 241 243
320 319 318 318 317 316 315 315 313 315 312 320 325 307 308 298 274 256 281 297 265 253 247 255 265 273 280 283 279 277 258 249 255 265 274 293 289 294 288 292 296 277 289 287 282 269 256 289 281 275 283 292 294 312 254 213 235 216 182 205 157 203 170 184 203 198 204 214 217 203 190 191 183 204 192 192 205 217 209 228 226 226 248 213 224 247 234
318 318 317 316 315 312 309 314 309 308 307 310 310 299 300 308 307 308 311 297 314 290 271 257 261 265 283 296 291 291 302 317 322 332 314 299 306 304 314 349 3 353 359 356 344 330 328 290 278 262 285 286 291 330 327 321 280 257 231 194 180 207 180 188 201 204 208 226 258 226 233 173 200 189 204 202 196 207 217 208 221 222 209 217 235 216 251
319 317 316 314 314 312 305 307 308 309 299 294 305 294 268 291 272 306 317 323 312 306 329 328 359 347 332 294 319 308 314 316 309 318 301 312 321 327 330 340 355 349 1 351 323 330 342 347 355 336 327 324 330 330 337 328 311 302 282 198 213 190 202 196 196 205 212 200 222 240 237 231 198 188 194 206 214 202 209 208 226 216 191 274 245 228 228
316 317 314 314 313 316 314 307 307 316 301 279 272 293 276 263 269 283 328 302 304 312 313 330 324 317 319 296 294 285 293 300 300 310 290 310 329 337 327 340 0 355 352 339 330 332 330 350 349 336 353 338 345 333 331 328 338 339 303 190 201 158 197 199 195 206 210 221 239 232 238 243 219 193 188 196 205 227 221 219 224 187 209 235 242 226 241
314 313 313 312 328 321 301 293 286 274 277 263 290 273 268 274 288 288 299 294 306 300 304 306 305 305 306 301 301 292 283 284 285 293 307 301 291 298 290 301 345 344 340 344 324 344 344 340 339 348 331 328 330 332 328 333 9 348 332 284 197 142 186 185 201 199 204 221 228 240 251 257 257 206 194 198 200 208 224 237 222 213 215 222 235 215 226
315 314 312 315 320 298 298 297 288 276 271 253 278 246 265 280 289 295 324 289 286 290 300 302 303 297 307 304 298 299 305 295 288 273 268 292 298 328 292 297 323 333 317 301 306 316 316 324 321 322 323 308 350 312 257 309 329 344 312 310 265 192 216 187 210 229 203 199 214 241 244 247 262 259 218 204 207 205 207 222 240 246 244 237 227 228 245
315 315 313 316 304 296 297 286 281 268 251 271 231 257 249 262 277 328 316 302 298 303 310 297 300 295 296 292 308 323 327 318 315 300 299 284 289 313 329 333 323 319 315 319 314 317 315 313 307 308 310 294 301 297 300 328 309 317 316 313 318 233 184 119 109 205 234 218 207 211 237 251 250 258 254 222 205 216 197 205 204 227 234 240 241 234 243
314 314 314 313 310 299 291 283 271 256 201 255 264 270 266 260 250 191 220 281 294 301 285 277 274 268 277 316 321 310 321 312 310 306 298 312 324 332 313 308 317 314 310 312 310 316 308 300 298 298 298 289 281 268 274 282 286 289 289 288 291 280 195 169 139 170 278 216 246 235 218 228 237 235 240 250 279 207 208 213 196 203 213 232 233 236 220
312 310 311 312 310 305 299 292 282 262 216 229 240 258 284 287 301 304 238 277 289 280 294 288 275 276 299 306 297 300 305 310 306 316 306 313 305 297 306 303 285 275 272 282 283 289 295 302 296 288 285 284 287 288 281 277 265 265 279 291 286 289 240 186 132 160 166 239 238 286 255 218 226 227 233 242 243 254 238 220 221 212 198 212 209 213 216
309 310 311 311 307 302 300 294 285 263 237 246 243 266 270 288 301 288 270 283 285 294 284 279 287 296 287 289 290 294 301 305 309 296 277 289 289 286 277 278 276 272 256 264 294 321 314 299 290 290 284 283 285 282 286 278 276 268 259 264 284 293 299 192 140 155 165 158 353 287 251 245 332 159 192 223 242 257 254 267 268 275 267 229 207 197 213
310 310 310 310 308 304 302 298 288 277 250 247 227 253 259 251 239 279 287 278 277 290 288 285 295 298 297 291 290 296 302 308 303 303 303 299 289 286 293 274 256 268 261 250 246 4 343 314 313 299 294 304 302 293 285 282 279 279 271 262 263 265 295 304 164 127 121 126 161 223 235 262 323 338 45 32 349 268 14 322 287 295 330 15 42 34 42
309 309 310 309 308 306 302 298 293 281 262 239 241 245 258 273 260 255 240 268 273 269 291 301 290 284 293 313 318 306 300 300 309 308 301 309 305 304 298 295 298 278 259 214 82 26 312 332 313 322 321 325 311 295 294 292 278 278 278 273 272 285 319 305 281 152 190 164 223 243 349 307 274 287 263 105 123 21 331 229 291 24 60 74 90 44 35
316 314 314 314 311 311 305 300 295 288 284 260 255 257 264 258 253 263 233 233 272 283 281 277 280 291 317 322 325 313 304 318 333 327 317 298 277 308 316 319 329 304 337 51 65 98 232 301 292 323 325 310 279 300 326 296 309 273 272 271 285 299 291 5 51 324 179 161 212 255 251 241 225 219 12 164 124 81 72 85 350 5 29 73 85 69 47
325 322 321 321 320 316 312 307 302 300 292 282 268 251 250 257 240 215 240 239 288 291 247 239 268 308 310 299 291 287 319 332 318 312 314 321 338 312 312 333 331 307 299 221 109 135 197 227 239 248 250 283 322 315 302 324 326 329 288 265 283 286 307 174 242 269 355 179 191 213 230 236 153 159 208 80 75 83 79 69 1 323 350 44 73 79 68
329 329 330 325 322 320 316 312 306 303 293 253 277 274 277 237 202 238 229 241 219 251 279 299 296 287 289 294 300 319 40 257 326 329 321 318 316 313 325 336 328 304 318 285 195 126 177 244 271 266 283 306 305 287 310 314 329 326 346 360 321 281 346 41 322 162 183 120 204 225 186 242 266 166 210 209 108 85 65 186 254 280 346 13 49 72 61
335 332 330 328 324 316 313 311 309 307 304 245 256 276 275 285 175 178 239 226 262 267 257 260 267 269 265 294 294 275 279 282 264 248 259 297 297 316 335 335 326 330 345 290 184 132 202 214 240 230 243 232 281 319 264 318 312 8 356 329 346 338 317 280 285 187 175 120 329 243 235 108 216 348 334 180 137 108 139 195 201 249 3 31 59 58 50
333 332 329 330 328 325 321 318 314 314 310 303 291 289 269 254 289 261 277 279 224 256 269 295 304 290 282 286 277 294 304 298 300 299 299 304 326 310 296 276 305 327 327 320 12 215 181 219 255 272 265 203 190 261 327 308 311 346 13 12 348 358 338 196 264 282 169 157 134 235 303 339 342 50 282 335 217 176 174 188 208 104 52 54 52 58 43
333 333 334 335 335 334 333 328 325 319 314 305 283 274 280 292 226 175 216 248 241 264 278 282 279 278 283 283 283 277 273 270 283 305 295 280 304 322 315 321 21 342 322 309 274 235 190 205 211 240 231 194 241 345 300 275 289 298 332 52 55 346 313 338 337 301 344 42 354 68 252 289 313 258 15 1 116 224 198 209 74 60 69 68 56 55 45
335 337 336 337 334 334 332 330 328 322 315 309 289 296 294 276 286 181 184 210 264 288 286 264 258 260 273 284 287 288 288 282 288 283 258 253 284 304 299 335 353 45 323 348 321 329 342 272 223 229 243 158 191 97 270 322 308 6 52 47 45 344 299 350 346 16 328 154 176 188 292 249 343 28 139 274 179 193 183 93 85 61 68 66 60 44 34
340 338 337 334 334 331 329 325 321 315 314 309 301 285 284 284 274 140 160 206 237 243 263 286 290 281 277 274 272 270 269 271 270 274 288 282 257 256 288 303 266 150 173 218 306 295 9 337 291 267 236 208 83 177 61 338 290 334 30 63 56 29 18 17 296 333 71 301 316 315 319 288 237 73 124 140 157 113 115 97 96 96 68 75 73 49 39
339 338 336 334 332 331 329 327 324 321 313 314 308 289 286 295 292 352 238 258 242 260 265 266 264 264 266 265 258 256 256 254 256 256 250 263 274 251 264 268 281 116 131 166 279 295 246 267 283 312 303 265 212 131 183 206 285 8 342 60 194 12 357 260 248 314 332 270 239 327 321 350 347 124 161 127 121 96 84 85 91 73 68 61 68 61 49
335 334 333 334 333 332 330 327 326 323 321 315 311 296 286 285 294 298 266 256 268 295 287 254 249 261 263 276 278 261 245 238 238 246 248 244 256 270 265 253 274 111 121 186 193 252 316 309 292 331 292 288 301 113 74 314 218 339 337 5 36 49 25 10 324 320 12 312 358 345 316 318 12 338 165 96 79 83 76 76 74 79 75 68 61 62 59
331 330 330 331 330 331 330 329 327 324 321 318 311 299 290 281 271 248 279 301 290 310 299 306 279 273 281 281 283 276 265 273 257 243 233 221 230 249 256 264 151 174 194 186 153 207 244 313 312 302 290 349 315 143 28 75 341 20 353 331 354 329 12 350 311 318 238 290 354 316 303 302 26 22 345 42 91 84 74 72 69 67 58 54 45 49 51
329 328 327 327 328 328 330 329 329 325 322 321 315 297 295 284 293 241 257 262 266 267 280 288 294 300 298 300 289 293 300 292 270 263 260 255 239 232 244 264 262 132 175 172 165 236 278 268 248 268 276 284 342 313 200 156 247 277 210 273 217 277 334 279 332 308 300 309 279 290 299 328 33 20 350 335 12 80 73 69 67 66 65 60 57 52 45
328 327 325 325 325 326 326 326 325 324 323 321 311 298 282 281 267 247 241 229 317 273 228 258 285 300 310 304 296 288 281 271 270 261 251 240 238 234 229 224 246 251 233 233 173 252 220 250 255 265 275 265 224 231 222 231 197 238 261 251 237 262 254 305 339 308 290 208 260 11 316 300 356 36 1 327 345 62 74 73 65 60 61 59 64 55 52
324 323 322 324 323 322 323 322 322 322 320 316 305 286 273 269 264 234 197 183 202 261 297 292 293 297 307 282 276 274 265 264 257 250 255 240 219 227 230 231 221 219 219 212 240 214 255 276 273 295 268 291 267 251 190 206 152 266 228 245 168 212 232 38 300 265 280 93 56 107 243 286 9 37 4 342 344 40 61 62 68 66 64 64 66 65 56
319 318 318 318 318 318 318 318 318 320 318 316 304 293 277 252 260 227 214 193 204 250 259 272 276 277 284 314 312 299 292 278 271 255 243 250 227 217 220 216 214 213 233 235 228 198 209 232 250 259 259 160 258 268 283 186 165 238 246 277 208 247 261 219 250 281 284 293 286 11 327 270 17 48 33 10 356 31 61 63 64 66 68 66 68 63 66
313 313 313 313 312 312 310 311 312 310 319 315 306 301 293 286 41 119 178 163 168 162 286 304 303 293 301 299 288 289 295 288 264 249 242 238 243 239 209 194 204 222 245 234 151 255 254 321 296 274 279 247 265 306 272 337 256 267 17 2 320 283 266 267 249 252 275 288 153 113 221 327 19 61 51 23 357 7 46 55 59 69 66 64 66 63 55
310 308 308 308 307 307 306 305 305 306 311 298 303 295 287 284 19 261 236 166 145 281 287 281 282 297 288 269 287 360 300 288 295 285 250 234 236 240 233 203 202 198 199 215 191 240 207 233 260 275 279 337 313 257 324 321 294 296 21 357 334 340 357 341 306 273 235 173 173 175 159 327 333 62 51 30 3 355 18 56 63 63 65 62 58 56 56
307 306 304 303 302 302 302 301 299 299 286 280 253 248 267 306 316 294 297 298 320 294 275 291 290 285 305 299 311 283 283 293 269 272 262 235 219 195 237 222 233 179 211 198 344 47 285 301 271 286 288 314 288 275 274 270 270 290 342 347 6 351 354 344 320 266 225 192 146 97 72 59 48 69 79 62 27 352 7 37 49 59 64 66 62 55 53
308 305 301 297 296 299 297 294 289 280 274 276 291 290 278 275 275 274 264 252 238 243 254 265 266 307 280 302 313 302 311 300 242 24 314 233 251 159 224 194 239 231 178 140 131 201 191 267 270 273 271 59 121 289 287 250 264 314 311 356 360 358 350 317 299 204 232 294 261 176 147 120 86 74 74 69 56 32 25 38 41 46 56 64 65 60 52
304 302 300 296 296 297 290 280 277 270 265 264 263 243 236 234 245 248 241 223 261 256 217 255 286 280 288 301 292 322 358 350 345 40 349 284 332 181 195 224 160 248 177 206 105 307 198 338 265 270 148 203 195 214 242 239 341 321 233 102 23 5 343 311 320 358 159 140 357 124 125 117 107 105 91 77 65 50 47 42 44 53 49 50 56 62 64
304 300 298 297 296 290 287 285 282 242 257 258 250 261 181 176 212 154 168 172 232 235 227 240 226 283 296 307 312 295 315 342 6 46 307 311 340 343 10 252 143 190 4 57 123 178 278 232 359 296 232 136 191 221 234 337 296 69 58 49 32 28 338 324 0 345 77 108 87 62 43 65 105 108 108 102 86 75 68 60 53 60 61 52 46 46 55
303 300 298 300 294 290 289 243 207 237 233 234 247 195 188 184 153 166 198 201 222 261 273 275 249 263 284 302 315 297 312 4 336 326 69 300 285 99 131 70 8 348 64 138 243 160 213 136 140 262 302 247 225 208 65 293 82 66 66 66 47 43 333 307 304 28 113 88 77 74 66 46 41 60 87 108 123 117 100 84 73 69 73 64 47 40 42
305 303 301 291 277 202 239 241 186 193 228 205 94 129 162 192 240 229 206 226 201 258 251 271 269 254 239 285 297 273 318 326 264 244 149 258 279 345 49 61 208 285 243 240 240 235 272 52 232 273 273 270 272 212 186 138 66 54 49 51 85 108 279 298 326 37 70 65 68 75 86 85 60 35 58 64 67 82 99 103 104 99 97 93 90 76 61
305 300 285 284 266 292 299 196 226 181 215 132 114 140 133 110 192 199 191 223 200 187 213 221 248 263 257 241 253 275 314 244 132 278 307 282 146 210 97 129 193 221 246 244 201 96 168 224 210 268 269 65 48 64 71 38 41 45 46 18 49 37 14 32 0 40 59 59 49 44 66 87 95 86 78 57 40 60 70 92 119 124 116 115 115 107 81
313 276 228 233 250 282 286 290 153 143 205 233 127 271 226 170 239 255 222 240 205 219 194 219 248 228 226 237 260 269 242 296 302 236 229 178 171 304 185 187 195 211 279 276 241 121 117 336 22 30 54 330 55 8 357 50 52 45 48 36 35 354 111 108 67 82 88 87 92 72 53 75 82 71 54 73 54 40 54 62 59 60 103 138 142 120 113
319 328 329 314 315 321 315 327 135 165 207 215 169 164 281 177 164 255 164 214 241 243 172 240 224 242 225 231 253 274 175 200 235 242 170 252 169 189 27 199 177 200 218 215 352 131 91 65 319 45 39 334 32 15 21 4 86 81 59 24 7 338 308 140 149 133 134 163 175 166 113 94 89 96 97 85 66 58 54 50 55 66 60 59 74 114 136
350 324 310 315 324 311 305 315 303 254 250 214 196 207 214 255 214 240 247 247 233 247 202 241 195 221 232 227 209 247 226 212 240 334 316 226 187 155 209 241 140 225 65 249 186 91 236 80 19 14 52 20 87 22 52 58 37 55 82 203 283 308 311 20 78 98 117 111 106 91 83 81 84 87 87 82 70 65 60 58 55 48 42 41 41 37 45
341 278 285 287 283 278 283 267 211 256 221 244 283 243 201 237 313 348 236 264 269 181 249 212 255 278 286 264 241 225 236 163 228 201 117 254 179 206 245 231 235 335 359 91 103 192 164 69 36 29 2 332 353 13 28 102 125 89 64 47 186 218 310 352 90 85 106 135 126 108 101 101 100 92 78 76 77 80 75 67 60 52 44 31 32 36 36
300 273 244 275 283 291 286 305 24 316 295 262 231 284 269 284 242 326 326 264 274 282 270 75 298 243 271 275 250 177 270 166 205 132 215 269 53 325 285 100 3 45 44 19 72 51 50 64 55 11 286 352 57 276 282 358 16 33 15 261 245 227 226 72 55 25 27 66 67 70 72 72 68 69 67 60 58 57 56 60 65 62 51 45 40 35 27
235 260 274 299 300 305 20 330 290 17 335 306 322 314 333 310 318 151 284 300 308 265 202 175 271 296 298 197 240 97 216 223 187 186 250 311 340 240 193 86 46 108 219 91 231 63 67 87 121 176 353 319 317 348 29 38 22 17 9 9 11 102 93 94 110 91 50 70 71 68 66 67 68 73 76 79 71 70 63 53 46 51 53 51 44 37 27
272 214 18 347 331 295 24 354 359 39 320 323 319 305 333 318 316 321 323 316 306 309 329 246 208 237 310 114 36 279 309 205 110 234 195 156 211 329 15 68 331 142 56 43 37 59 42 73 51 63 56 54 49 47 27 32 23 30 29 34 35 56 61 73 83 82 74 68 75 78 74 68 66 56 51 52 57 61 62 54 50 55 52 50 45 39 27
277 305 12 357 333 329 49 306 310 324 282 266 254 247 278 284 290 291 294 308 307 303 322 342 333 333 338 38 299 113 153 197 331 201 101 209 68 49 10 325 197 68 52 37 44 51 47 29 26 35 40 42 33 17 33 15 343 283 245 86 92 83 70 55 48 52 50 53 58 58 58 59 65 69 65 58 57 60 70 78 66 64 59 53 44 43 43
278 272 123 98 332 303 220 343 347 304 282 282 285 293 286 268 258 269 276 286 293 307 316 332 314 349 323 331 316 262 82 105 64 55 43 66 56 103 198 11 33 18 44 48 48 65 53 24 29 24 27 22 10 355 10 358 340 319 124 123 119 112 116 107 112 91 78 74 72 71 68 67 68 70 74 72 65 64 62 60 61 60 64 61 55 58 64
271 233 87 22 332 307 345 319 273 282 269 267 295 305 313 284 304 357 348 340 309 315 330 334 325 355 322 158 211 340 2 3 343 115 121 90 78 20 27 42 51 36 32 53 47 33 40 29 21 15 18 19 15 14 2 7 347 343 83 70 71 69 73 83 85 81 74 73 76 79 81 78 69 69 70 72 67 56 55 61 63 57 53 54 53 54 73
258 116 141 203 57 2 253 272 326 306 319 319 260 278 336 8 20 5 343 352 356 326 321 320 0 14 288 294 0 20 26 345 12 7 360 11 38 21 30 47 29 53 29 44 58 35 25 358 8 14 40 32 18 355 4 10 327 320 60 65 67 66 63 64 66 72 72 71 66 73 75 73 64 57 59 60 65 55 49 56 61 56 54 55 62 62 52
340 301 173 153 45 222 215 245 262 335 339 344 355 357 344 355 9 3 341 322 245 234 279 257 190 228 360 357 19 17 41 355 12 355 19 30 28 28 40 56 37 51 47 34 45 27 16 5 5 19 22 20 17 18 16 15 15 15 22 28 37 66 76 70 62 53 48 46 55 60 65 68 67 63 54 52 56 64 52 40 35 32 35 31 41 45 60
225 225 283 353 78 300 349 33 21 356 351 353 343 343 349 347 355 348 333 334 320 350 22 25 12 18 360 19 1 25 4 312 29 28 24 23 355 26 35 52 43 48 58 42 25 23 23 22 19 19 23 23 13 6 4 14 23 34 356 14 39 27 26 43 52 50 42 37 39 44 49 53 51 54 50 48 43 31 26 20 11 10 49 40 39 43 37
303 360 360 14 18 19 23 68 129 260 296 303 314 329 349 346 342 317 294 321 353 24 29 8 1 15 28 32 353 292 301 18 37 17 43 30 356 34 46 49 50 45 44 39 28 24 30 30 21 25 34 27 9 358 4 5 12 121 18 44 43 36 36 33 30 33 38 43 39 42 44 35 32 35 39 36 28 24 25 17 9 23 28 9 7 47 44